OK3MS-5 Weather Reports


Display with metric or nautical units.
time (UTC)temp
F
wind
direction
speed
MPH
gust
MPH
rain 1hr
in
rain 24hr
in
rain mn
in
humidity
%
barometer
mb
20260506102005 70 181 3.0 5.0 0.00 0.00 0.00 46 1004.1
20260506101502 69 162 2.0 9.0 0.00 0.00 0.00 47 1004.4
20260506101003 69 156 4.0 6.0 0.00 0.00 0.00 48 1004.4
20260506100505 70 162 1.0 4.0 0.00 0.00 0.00 47 1004.4
20260506100005 70 175 2.0 3.0 0.00 0.00 0.00 49 1004.5
20260506095504 69 176 2.0 2.0 0.00 0.00 0.00 50 1004.7
20260506095003 68 176 1.0 6.0 0.00 0.00 0.00 53 1004.7
20260506094504 68 191 0.0 3.0 0.00 0.00 0.00 56 1004.8
20260506094002 68 187 1.0 3.0 0.00 0.00 0.00 53 1004.9
20260506093503 68 187 2.0 3.0 0.00 0.00 0.00 54 1004.9
20260506093003 68 189 1.0 2.0 0.00 0.00 0.00 53 1005.0
20260506092506 68 156 0.0 5.0 0.00 0.00 0.00 54 1005.0
20260506092005 67 171 2.0 4.0 0.00 0.00 0.00 53 1005.3
20260506091504 66 161 2.0 5.0 0.00 0.00 0.00 56 1005.3
20260506091004 67 264 1.0 3.0 0.00 0.00 0.00 54 1005.4
20260506090505 65 150 6.0 7.0 0.00 0.00 0.00 58 1005.5
20260506090003 65 172 1.0 5.0 0.00 0.00 0.00 59 1005.4
20260506085508 65 172 0.0 6.0 0.00 0.00 0.00 58 1005.4
20260506085006 65 173 0.0 7.0 0.00 0.00 0.00 59 1005.5
20260506084504 65 174 2.0 7.0 0.00 0.00 0.00 59 1005.4
20260506084006 66 234 2.0 6.0 0.00 0.00 0.00 60 1005.4
20260506083503 65 248 0.0 2.0 0.00 0.00 0.00 61 1005.6
20260506083002 65 162 0.0 4.0 0.00 0.00 0.00 62 1005.7
20260506082503 64 162 2.0 7.0 0.00 0.00 0.00 62 1005.7
20260506082009 64 162 1.0 1.0 0.00 0.00 0.00 61 1005.7
20260506081503 65 162 0.0 1.0 0.00 0.00 0.00 59 1005.6
20260506081007 64 162 2.0 7.0 0.00 0.00 0.00 61 1005.7
20260506080505 63 148 3.0 8.0 0.00 0.00 0.00 64 1005.7
20260506073505 61 204 1.0 3.0 0.00 0.00 0.00 70 1006.1
20260506073006 62 204 0.0 3.0 0.00 0.00 0.00 69 1006.2
20260506072503 62 171 0.0 2.0 0.00 0.00 0.00 70 1006.1
20260506072003 61 168 3.0 6.0 0.00 0.00 0.00 71 1006.3
20260506071504 61 168 6.0 6.0 0.00 0.00 0.00 72 1006.4
20260506071002 61 228 0.0 2.0 0.00 0.00 0.00 72 1006.4
20260506070505 60 264 0.0 3.0 0.00 0.00 0.00 73 1006.4
20260506062503 59 248 0.0 6.0 0.00 0.00 0.00 81 1006.8
20260506062003 58 192 0.0 4.0 0.00 0.00 0.00 81 1006.7
20260506061504 57 192 1.0 2.0 0.00 0.00 0.00 83 1006.9
20260506061004 57 192 1.0 4.0 0.00 0.00 0.00 83 1006.8
20260506060506 57 198 0.0 3.0 0.00 0.00 0.00 84 1006.9
20260506051004 54 186 0.0 0.0 0.00 0.00 0.00 92 1007.2
20260506050502 53 186 2.0 4.0 0.00 0.00 0.00 92 1007.2
20260506045010 52 254 0.0 0.0 0.00 0.00 0.00 95 1007.2
20260506044502 51 254 0.0 0.0 0.00 0.00 0.00 98 1007.5
20260506044004 51 254 0.0 0.0 0.00 0.00 0.00 99 1007.5
20260506043503 50 254 0.0 0.0 0.00 0.00 0.00 99 1007.6
20260506043002 49 255 0.0 0.0 0.00 0.00 0.00 99 1007.7
20260506042509 49 255 0.0 0.0 0.00 0.00 0.00 99 1007.6
20260506042005 48 255 0.0 0.0 0.00 0.00 0.00 99 1007.6
20260506041503 48 255 0.0 0.0 0.00 0.00 0.00 99 1007.5
20260506040506 48 255 0.0 0.0 0.00 0.00 0.00 99 1007.4
20260506040009 48 255 0.0 0.0 0.00 0.00 0.00 99 1007.4
20260506035504 48 255 0.0 0.0 0.00 0.00 0.00 99 1007.3
20260506035012 49 255 0.0 0.0 0.00 0.00 0.00 99 1007.3
20260506034502 48 255 0.0 0.0 0.00 0.00 0.00 99 1007.2
20260506034003 48 255 0.0 0.0 0.00 0.00 0.00 99 1007.2
20260506033505 48 254 0.0 0.0 0.00 0.00 0.00 99 1007.1
20260506033005 48 255 0.0 0.0 0.00 0.00 0.00 99 1007.0
20260506032003 48 255 0.0 0.0 0.00 0.00 0.00 99 1007.0
20260506031505 49 254 0.0 0.0 0.00 0.00 0.00 99 1007.0
20260506031008 49 254 0.0 0.0 0.00 0.00 0.00 99 1006.8
20260506030504 49 255 0.0 0.0 0.00 0.00 0.00 99 1006.9
20260506030007 49 255 0.0 0.0 0.00 0.00 0.00 99 1007.0
20260506025505 50 254 0.0 0.0 0.00 0.00 0.00 99 1007.0
20260506025008 50 254 0.0 0.0 0.00 0.00 0.00 99 1006.8
20260506024507 50 254 0.0 0.0 0.00 0.00 0.00 99 1006.9
20260506024008 50 254 0.0 0.0 0.00 0.00 0.00 99 1006.9
20260506023504 51 254 0.0 0.0 0.00 0.00 0.00 99 1006.9
20260506023004 51 254 0.0 0.0 0.00 0.00 0.00 99 1007.0
20260506022509 51 254 0.0 0.0 0.00 0.00 0.00 99 1006.9
20260506022004 51 254 0.0 0.0 0.00 0.00 0.00 99 1007.0
20260506021509 51 254 0.0 0.0 0.00 0.00 0.00 99 1007.0
20260506021002 51 254 0.0 0.0 0.00 0.00 0.00 99 1006.9
20260506020506 51 254 0.0 0.0 0.00 0.00 0.00 99 1007.0
20260506020009 51 255 0.0 0.0 0.00 0.00 0.00 99 1007.1
20260506015503 51 255 0.0 0.0 0.00 0.00 0.00 99 1007.0
20260506015007 51 255 0.0 0.0 0.00 0.00 0.00 99 1006.9
20260506014004 51 255 0.0 0.0 0.00 0.00 0.00 99 1007.1
20260506013505 51 254 0.0 0.0 0.00 0.00 0.00 98 1007.0
20260506013012 52 254 0.0 0.0 0.00 0.00 0.00 98 1006.9
20260506012512 52 254 0.0 0.0 0.00 0.00 0.00 98 1007.0
20260506012003 53 254 0.0 0.0 0.00 0.00 0.00 98 1006.8
20260506011503 53 254 0.0 0.0 0.00 0.00 0.00 98 1006.8
20260506011008 53 254 0.0 0.0 0.00 0.00 0.00 98 1006.8
20260506010505 53 254 0.0 0.0 0.00 0.00 0.00 98 1006.8
20260506010003 53 254 0.0 0.0 0.00 0.00 0.00 97 1006.8
20260506005504 53 254 0.0 0.0 0.00 0.00 0.00 97 1006.8
20260506005003 53 254 0.0 0.0 0.00 0.00 0.00 96 1006.8
20260506004503 53 254 0.0 0.0 0.00 0.00 0.00 96 1006.7
20260506004002 53 254 0.0 0.0 0.00 0.00 0.00 96 1006.6
20260506003504 54 254 0.0 0.0 0.00 0.00 0.00 96 1006.5
20260506003006 54 254 0.0 0.0 0.00 0.00 0.00 95 1006.6
20260506002504 54 254 0.0 0.0 0.00 0.00 0.00 95 1006.6
20260506002006 54 254 0.0 0.0 0.00 0.00 0.00 94 1006.4
20260506001502 54 254 0.0 0.0 0.00 0.00 0.00 94 1006.3
20260506001009 54 254 0.0 0.0 0.00 0.00 0.00 93 1006.3
20260506000504 55 254 0.0 0.0 0.00 0.00 0.00 93 1006.3
20260506000008 55 254 0.0 0.0 0.00 0.00 0.00 92 1006.1
20260505235503 55 254 0.0 0.0 0.00 0.00 0.00 92 1006.1
20260505235004 55 254 0.0 2.0 0.00 0.00 0.00 91 1006.0
20260505234508 55 254 0.0 3.0 0.00 0.00 0.00 91 1006.1
20260505234003 56 254 0.0 0.0 0.00 0.00 0.00 90 1006.0
20260505233502 56 255 1.0 1.0 0.00 0.00 0.00 89 1006.0
20260505233009 56 255 0.0 3.0 0.00 0.00 0.00 88 1005.9
20260505232507 57 256 3.0 6.0 0.00 0.00 0.00 87 1005.8
20260505232005 57 245 1.0 6.0 0.00 0.00 0.00 86 1005.7
20260505231505 57 270 1.0 5.0 0.00 0.00 0.00 85 1005.5
20260505231002 57 318 2.0 8.0 0.00 0.00 0.00 84 1005.4
20260505230503 57 331 1.0 2.0 0.00 0.00 0.00 84 1005.4
20260505230005 57 272 0.0 4.0 0.00 0.00 0.00 84 1005.5
20260505225507 58 272 5.0 5.0 0.00 0.00 0.00 84 1005.7
20260505225003 58 252 2.0 6.0 0.00 0.00 0.00 83 1005.6
20260505224504 58 260 8.0 8.0 0.00 0.00 0.00 83 1005.6
20260505224003 58 270 1.0 7.0 0.00 0.00 0.00 83 1005.7
20260505223503 58 279 0.0 5.0 0.00 0.00 0.00 83 1005.6
20260505223008 59 258 2.0 6.0 0.00 0.00 0.00 80 1005.7
20260505222502 60 264 2.0 15.0 0.00 0.00 0.00 76 1005.7
20260505221503 60 256 2.0 9.0 0.00 0.00 0.00 72 1005.3
20260505221008 60 251 2.0 8.0 0.00 0.00 0.00 72 1005.2
20260505220504 61 264 6.0 9.0 0.00 0.00 0.00 72 1005.1
20260505220009 61 270 11.0 12.0 0.00 0.00 0.00 72 1005.1
20260505215502 61 274 12.0 14.0 0.00 0.00 0.00 71 1005.0
20260505215008 61 270 5.0 13.0 0.00 0.00 0.00 71 1005.0
20260505214502 61 234 9.0 9.0 0.00 0.00 0.00 71 1005.0
20260505214010 61 241 5.0 7.0 0.00 0.00 0.00 71 1005.0
20260505213503 61 265 2.0 9.0 0.00 0.00 0.00 72 1004.8
20260505212503 61 252 3.0 12.0 0.00 0.00 0.00 72 1004.7
20260505212008 61 264 6.0 9.0 0.00 0.00 0.00 73 1004.6
20260505211503 61 281 1.0 9.0 0.00 0.00 0.00 74 1004.5
20260505211005 61 244 3.0 9.0 0.00 0.00 0.00 75 1004.4
20260505210504 61 240 6.0 7.0 0.00 0.00 0.00 76 1004.3
20260505210004 60 222 2.0 13.0 0.00 0.00 0.00 76 1004.2
20260505205502 59 198 5.0 5.0 0.00 0.00 0.00 79 1004.1
20260505205009 59 192 0.0 0.0 0.00 0.00 0.00 79 1004.0
20260505204503 59 192 0.0 0.0 0.00 0.00 0.00 79 1003.8
20260505204008 60 192 0.0 1.0 0.00 0.00 0.00 77 1003.5
20260505203503 60 192 0.0 2.0 0.00 0.00 0.00 76 1003.3
20260505203010 61 192 1.0 1.0 0.00 0.00 0.00 75 1003.1
20260505202503 61 204 0.0 1.0 0.00 0.00 0.00 73 1002.9
20260505202010 61 192 0.0 2.0 0.00 0.00 0.00 72 1002.7
20260505201506 61 206 1.0 2.0 0.00 0.00 0.00 70 1002.4
20260505201008 61 166 2.0 15.0 0.00 0.00 0.00 70 1002.6
20260505200503 61 13 1.0 1.0 0.00 0.00 0.00 67 1002.4
20260505200009 62 13 0.0 0.0 0.00 0.00 0.00 66 1002.0
20260505195505 63 13 0.0 0.0 0.00 0.00 0.00 62 1001.8
20260505195009 63 13 0.0 1.0 0.00 0.00 0.00 61 1001.7
20260505194503 63 13 0.0 2.0 0.00 0.00 0.00 63 1001.8
20260505193503 62 13 0.0 0.0 0.00 0.00 0.00 67 1001.8
20260505193004 62 13 0.0 0.0 0.00 0.00 0.00 68 1001.9
20260505192502 62 13 0.0 0.0 0.00 0.00 0.00 68 1001.8
20260505192003 62 13 0.0 1.0 0.00 0.00 0.00 67 1001.7
20260505191502 62 13 1.0 3.0 0.00 0.00 0.00 66 1001.7
20260505191004 62 13 0.0 1.0 0.00 0.00 0.00 66 1001.6
20260505190504 63 13 0.0 1.0 0.00 0.00 0.00 65 1001.6
20260505190003 63 13 0.0 1.0 0.00 0.00 0.00 65 1001.6
20260505185503 63 13 0.0 1.0 0.00 0.00 0.00 64 1001.6
20260505185008 64 13 2.0 4.0 0.00 0.00 0.00 63 1001.4
20260505184502 65 14 1.0 4.0 0.00 0.00 0.00 62 1001.3
20260505184009 64 36 2.0 3.0 0.00 0.00 0.00 61 1001.4
20260505183503 64 26 0.0 2.0 0.00 0.00 0.00 62 1001.4
20260505183004 64 26 1.0 2.0 0.00 0.00 0.00 64 1001.5
20260505182508 64 26 2.0 3.0 0.00 0.00 0.00 64 1001.5
20260505182003 64 19 0.0 2.0 0.00 0.00 0.00 64 1001.5
20260505181503 64 19 2.0 3.0 0.00 0.00 0.00 64 1001.4
20260505181009 64 19 0.0 2.0 0.00 0.00 0.00 63 1001.4
20260505180502 64 19 1.0 3.0 0.00 0.00 0.00 63 1001.4
20260505180010 65 19 2.0 2.0 0.00 0.00 0.00 63 1001.5
20260505175503 65 20 1.0 4.0 0.00 0.00 0.00 62 1001.4
20260505175007 65 19 0.0 5.0 0.00 0.00 0.00 62 1001.5
20260505174503 65 19 0.0 4.0 0.00 0.00 0.00 62 1001.5
20260505174004 66 20 1.0 5.0 0.00 0.00 0.00 60 1001.4
20260505173503 66 7 0.0 2.0 0.00 0.00 0.00 60 1001.5
20260505173003 66 7 2.0 2.0 0.00 0.00 0.00 60 1001.5
20260505172504 66 7 0.0 0.0 0.00 0.00 0.00 60 1001.4
20260505172002 66 7 0.0 0.0 0.00 0.00 0.00 60 1001.3
20260505171504 67 7 0.0 2.0 0.00 0.00 0.00 58 1001.4
20260505171004 67 7 1.0 1.0 0.00 0.00 0.00 57 1001.3
20260505170504 68 7 1.0 2.0 0.00 0.00 0.00 56 1001.4
20260505170003 68 7 0.0 3.0 0.00 0.00 0.00 56 1001.4
20260505165501 68 7 1.0 5.0 0.00 0.00 0.00 56 1001.3
20260505165003 68 6 1.0 4.0 0.00 0.00 0.00 56 1001.5
20260505164504 68 7 1.0 5.0 0.00 0.00 0.00 58 1001.6
20260505164004 68 6 3.0 5.0 0.00 0.00 0.00 57 1001.6
20260505163502 69 6 2.0 5.0 0.00 0.00 0.00 56 1001.7
20260505163003 69 0 1.0 6.0 0.00 0.00 0.00 55 1001.7
20260505162504 69 350 6.0 6.0 0.00 0.00 0.00 54 1001.7
20260505162004 69 349 3.0 9.0 0.00 0.00 0.00 55 1001.8
20260505161505 69 342 4.0 5.0 0.00 0.00 0.00 54 1001.8
20260505161005 69 342 5.0 6.0 0.00 0.00 0.00 54 1001.9
20260505160506 69 316 1.0 6.0 0.00 0.00 0.00 56 1001.9
20260505153002 69 246 0.0 6.0 0.00 0.00 0.00 55 1002.4
20260505152503 70 246 5.0 5.0 0.00 0.00 0.00 54 1002.3
20260505151504 71 298 1.0 2.0 0.00 0.00 0.00 51 1002.4
20260505151006 70 294 2.0 4.0 0.00 0.00 0.00 53 1002.4
20260505150502 71 312 1.0 1.0 0.00 0.00 0.00 51 1002.3
20260505140504 73 108 1.0 5.0 0.00 0.00 0.00 42 1002.5
20260505125002 75 115 2.0 6.0 0.00 0.00 0.00 40 1002.7
20260505124503 74 119 4.0 9.0 0.00 0.00 0.00 39 1002.8
20260505124005 74 18 3.0 8.0 0.00 0.00 0.00 40 1002.8
20260505123503 75 122 2.0 8.0 0.00 0.00 0.00 38 1002.9
20260505123002 75 59 0.0 3.0 0.00 0.00 0.00 41 1002.9
20260505122503 75 59 4.0 5.0 0.00 0.00 0.00 41 1002.8
20260505122007 75 18 1.0 2.0 0.00 0.00 0.00 41 1003.0
20260505121503 75 51 0.0 4.0 0.00 0.00 0.00 40 1002.9
20260505121009 75 20 0.0 1.0 0.00 0.00 0.00 40 1002.9
20260505120505 76 20 0.0 2.0 0.00 0.00 0.00 39 1002.8
20260505120003 76 20 0.0 1.0 0.00 0.00 0.00 37 1002.7
20260505115503 76 20 0.0 2.0 0.00 0.00 0.00 38 1002.9
20260505115003 76 20 0.0 2.0 0.00 0.00 0.00 37 1002.8
20260505114504 76 21 0.0 3.0 0.00 0.00 0.00 36 1002.9
20260505114004 76 56 2.0 2.0 0.00 0.00 0.00 36 1002.8
20260505113503 76 166 0.0 5.0 0.00 0.00 0.00 35 1002.8
20260505113003 77 166 5.0 6.0 0.00 0.00 0.00 34 1002.9
20260505112503 77 174 1.0 3.0 0.00 0.00 0.00 33 1002.8
20260505112007 78 182 5.0 6.0 0.00 0.00 0.00 32 1002.7
20260505111507 79 186 2.0 2.0 0.00 0.00 0.00 32 1002.6
20260505111002 79 166 1.0 6.0 0.00 0.00 0.00 33 1002.8
20260505110506 78 222 2.0 5.0 0.00 0.00 0.00 32 1002.9